Year,Month,Day,Hour,Minute,Value (Times are PST for temperature in C)
2021,12,02,00,00,10.00
2021,12,02,00,01,9.90
2021,12,02,00,02,9.90
2021,12,02,00,03,9.90
2021,12,02,00,04,9.90
2021,12,02,00,05,9.90
2021,12,02,00,06,9.90
2021,12,02,00,07,9.90
2021,12,02,00,08,9.90
2021,12,02,00,09,9.80
2021,12,02,00,10,9.80
2021,12,02,00,11,9.80
2021,12,02,00,12,9.80
2021,12,02,00,13,9.80
2021,12,02,00,14,9.80
2021,12,02,00,15,9.80
2021,12,02,00,16,9.80
2021,12,02,00,17,9.80
2021,12,02,00,18,9.80
2021,12,02,00,19,9.80
2021,12,02,00,20,9.80
2021,12,02,00,21,9.80
2021,12,02,00,22,9.80
2021,12,02,00,23,9.80
2021,12,02,00,24,9.80
2021,12,02,00,25,9.80
2021,12,02,00,26,9.80
2021,12,02,00,27,9.80
2021,12,02,00,28,9.70
2021,12,02,00,29,9.70
2021,12,02,00,30,9.70
2021,12,02,00,31,9.70
2021,12,02,00,32,9.70
2021,12,02,00,33,9.80
2021,12,02,00,34,9.80
2021,12,02,00,35,9.80
2021,12,02,00,36,9.80
2021,12,02,00,37,9.80
2021,12,02,00,38,9.80
2021,12,02,00,39,9.80
2021,12,02,00,40,9.80
2021,12,02,00,41,9.80
2021,12,02,00,42,9.80
2021,12,02,00,43,9.80
2021,12,02,00,44,9.90
2021,12,02,00,45,9.90
2021,12,02,00,46,9.90
2021,12,02,00,47,9.90
2021,12,02,00,48,9.90
2021,12,02,00,49,9.90
2021,12,02,00,50,10.00
2021,12,02,00,51,10.00
2021,12,02,00,52,10.00
2021,12,02,00,53,10.00
2021,12,02,00,54,10.00
2021,12,02,00,55,9.90
2021,12,02,00,56,10.00
2021,12,02,00,57,10.00
2021,12,02,00,58,10.00
2021,12,02,00,59,10.00
2021,12,02,01,00,10.00
2021,12,02,01,01,9.90
2021,12,02,01,02,9.90
2021,12,02,01,03,9.90
2021,12,02,01,04,9.90
2021,12,02,01,05,9.90
2021,12,02,01,06,9.90
2021,12,02,01,07,9.80
2021,12,02,01,08,9.80
2021,12,02,01,09,9.80
2021,12,02,01,10,9.80
2021,12,02,01,11,9.70
2021,12,02,01,12,9.70
2021,12,02,01,13,9.70
2021,12,02,01,14,9.70
2021,12,02,01,15,9.70
2021,12,02,01,16,9.70
2021,12,02,01,17,9.60
2021,12,02,01,18,9.60
2021,12,02,01,19,9.60
2021,12,02,01,20,9.60
2021,12,02,01,21,9.50
2021,12,02,01,22,9.50
2021,12,02,01,23,9.50
2021,12,02,01,24,9.50
2021,12,02,01,25,9.40
2021,12,02,01,26,9.40
2021,12,02,01,27,9.40
2021,12,02,01,28,9.40
2021,12,02,01,29,9.40
2021,12,02,01,30,9.40
2021,12,02,01,31,9.40
2021,12,02,01,32,9.40
2021,12,02,01,33,9.30
2021,12,02,01,34,9.30
2021,12,02,01,35,9.30
2021,12,02,01,36,9.30
2021,12,02,01,37,9.30
2021,12,02,01,38,9.30
2021,12,02,01,39,9.30
2021,12,02,01,40,9.20
2021,12,02,01,41,9.30
2021,12,02,01,42,9.20
2021,12,02,01,43,9.20
2021,12,02,01,44,9.20
2021,12,02,01,45,9.20
2021,12,02,01,46,9.20
2021,12,02,01,47,9.20
2021,12,02,01,48,9.20
2021,12,02,01,49,9.20
2021,12,02,01,50,9.20
2021,12,02,01,51,9.20
2021,12,02,01,52,9.10
2021,12,02,01,53,9.10
2021,12,02,01,54,9.10
2021,12,02,01,55,9.10
2021,12,02,01,56,9.10
2021,12,02,01,57,9.10
2021,12,02,01,58,9.10
2021,12,02,01,59,9.00
2021,12,02,02,00,9.00
2021,12,02,02,01,9.00
2021,12,02,02,02,9.00
2021,12,02,02,03,9.00
2021,12,02,02,04,9.00
2021,12,02,02,05,9.00
2021,12,02,02,06,9.00
2021,12,02,02,07,8.90
2021,12,02,02,08,8.90
2021,12,02,02,09,8.90
2021,12,02,02,10,8.90
2021,12,02,02,11,8.90
2021,12,02,02,12,8.80
2021,12,02,02,13,8.80
2021,12,02,02,14,8.80
2021,12,02,02,15,8.80
2021,12,02,02,16,8.80
2021,12,02,02,17,8.80
2021,12,02,02,18,8.80
2021,12,02,02,19,8.80
2021,12,02,02,20,8.80
2021,12,02,02,21,8.80
2021,12,02,02,22,8.80
2021,12,02,02,23,8.80
2021,12,02,02,24,8.80
2021,12,02,02,25,8.80
2021,12,02,02,26,8.80
2021,12,02,02,27,8.80
2021,12,02,02,28,8.80
2021,12,02,02,29,8.80
2021,12,02,02,30,8.80
2021,12,02,02,31,8.80
2021,12,02,02,32,8.80
2021,12,02,02,33,8.80
2021,12,02,02,34,8.80
2021,12,02,02,35,8.70
2021,12,02,02,36,8.70
2021,12,02,02,37,8.70
2021,12,02,02,38,8.70
2021,12,02,02,39,8.70
2021,12,02,02,40,8.70
2021,12,02,02,41,8.70
2021,12,02,02,42,8.70
2021,12,02,02,43,8.60
2021,12,02,02,44,8.70
2021,12,02,02,45,8.70
2021,12,02,02,46,8.70
2021,12,02,02,47,8.70
2021,12,02,02,48,8.70
2021,12,02,02,49,8.70
2021,12,02,02,50,8.70
2021,12,02,02,51,8.70
2021,12,02,02,52,8.70
2021,12,02,02,53,8.60
2021,12,02,02,54,8.60
2021,12,02,02,55,8.60
2021,12,02,02,56,8.60
2021,12,02,02,57,8.60
2021,12,02,02,58,8.60
2021,12,02,02,59,8.60
2021,12,02,03,00,8.60
2021,12,02,03,01,8.60
2021,12,02,03,02,8.60
2021,12,02,03,03,8.60
2021,12,02,03,04,8.60
2021,12,02,03,05,8.60
2021,12,02,03,06,8.60
2021,12,02,03,07,8.60
2021,12,02,03,08,8.50
2021,12,02,03,09,8.50
2021,12,02,03,10,8.50
2021,12,02,03,11,8.50
2021,12,02,03,12,8.40
2021,12,02,03,13,8.40
2021,12,02,03,14,8.40
2021,12,02,03,15,8.40
2021,12,02,03,16,8.40
2021,12,02,03,17,8.40
2021,12,02,03,18,8.30
2021,12,02,03,19,8.30
2021,12,02,03,20,8.30
2021,12,02,03,21,8.30
2021,12,02,03,22,8.30
2021,12,02,03,23,8.30
2021,12,02,03,24,8.30
2021,12,02,03,25,8.20
2021,12,02,03,26,8.20
2021,12,02,03,27,8.20
2021,12,02,03,28,8.20
2021,12,02,03,29,8.20
2021,12,02,03,30,8.20
2021,12,02,03,31,8.10
2021,12,02,03,32,8.10
2021,12,02,03,33,8.10
2021,12,02,03,34,8.10
2021,12,02,03,35,8.00
2021,12,02,03,36,8.00
2021,12,02,03,37,8.00
2021,12,02,03,38,7.90
2021,12,02,03,39,7.90
2021,12,02,03,40,7.90
2021,12,02,03,41,7.80
2021,12,02,03,42,7.80
2021,12,02,03,43,7.70
2021,12,02,03,44,7.70
2021,12,02,03,45,7.70
2021,12,02,03,46,7.70
2021,12,02,03,47,7.70
2021,12,02,03,48,7.70
2021,12,02,03,49,7.70
2021,12,02,03,50,7.70
2021,12,02,03,51,7.70
2021,12,02,03,52,7.70
2021,12,02,03,53,7.70
2021,12,02,03,54,7.70
2021,12,02,03,55,7.70
2021,12,02,03,56,7.70
2021,12,02,03,57,7.60
2021,12,02,03,58,7.70
2021,12,02,03,59,7.60
2021,12,02,04,00,7.60
2021,12,02,04,01,7.60
2021,12,02,04,02,7.60
2021,12,02,04,03,7.60
2021,12,02,04,04,7.60
2021,12,02,04,05,7.60
2021,12,02,04,06,7.60
2021,12,02,04,07,7.50
2021,12,02,04,08,7.50
2021,12,02,04,09,7.50
2021,12,02,04,10,7.50
2021,12,02,04,11,7.50
2021,12,02,04,12,7.50
2021,12,02,04,13,7.50
2021,12,02,04,14,7.50
2021,12,02,04,15,7.50
2021,12,02,04,16,7.40
2021,12,02,04,17,7.40
2021,12,02,04,18,7.40
2021,12,02,04,19,7.40
2021,12,02,04,20,7.40
2021,12,02,04,21,7.40
2021,12,02,04,22,7.40
2021,12,02,04,23,7.40
2021,12,02,04,24,7.40
2021,12,02,04,25,7.40
2021,12,02,04,26,7.40
2021,12,02,04,27,7.40
2021,12,02,04,28,7.40
2021,12,02,04,29,7.40
2021,12,02,04,30,7.40
2021,12,02,04,31,7.40
2021,12,02,04,32,7.40
2021,12,02,04,33,7.40
2021,12,02,04,34,7.40
2021,12,02,04,35,7.30
2021,12,02,04,36,7.30
2021,12,02,04,37,7.30
2021,12,02,04,38,7.30
2021,12,02,04,39,7.20
2021,12,02,04,40,7.20
2021,12,02,04,41,7.20
2021,12,02,04,42,7.20
2021,12,02,04,43,7.20
2021,12,02,04,44,7.20
2021,12,02,04,45,7.20
2021,12,02,04,46,7.20
2021,12,02,04,47,7.10
2021,12,02,04,48,7.10
2021,12,02,04,49,7.10
2021,12,02,04,50,7.10
2021,12,02,04,51,7.10
2021,12,02,04,52,7.00
2021,12,02,04,53,7.00
2021,12,02,04,54,7.00
2021,12,02,04,55,6.90
2021,12,02,04,56,6.90
2021,12,02,04,57,6.90
2021,12,02,04,58,6.80
2021,12,02,04,59,6.80
2021,12,02,05,00,6.80
2021,12,02,05,01,6.80
2021,12,02,05,02,6.70
2021,12,02,05,03,6.70
2021,12,02,05,04,6.70
2021,12,02,05,05,6.60
2021,12,02,05,06,6.60
2021,12,02,05,07,6.60
2021,12,02,05,08,6.50
2021,12,02,05,09,6.50
2021,12,02,05,10,6.50
2021,12,02,05,11,6.40
2021,12,02,05,12,6.40
2021,12,02,05,13,6.30
2021,12,02,05,14,6.30
2021,12,02,05,15,6.30
2021,12,02,05,16,6.30
2021,12,02,05,17,6.30
2021,12,02,05,18,6.20
2021,12,02,05,19,6.20
2021,12,02,05,20,6.20
2021,12,02,05,21,6.20
2021,12,02,05,22,6.10
2021,12,02,05,23,6.10
2021,12,02,05,24,6.10
2021,12,02,05,25,6.10
2021,12,02,05,26,6.10
2021,12,02,05,27,6.10
2021,12,02,05,28,6.10
2021,12,02,05,29,6.10
2021,12,02,05,30,6.10
2021,12,02,05,31,6.10
2021,12,02,05,32,6.10
2021,12,02,05,33,6.10
2021,12,02,05,34,6.10
2021,12,02,05,35,6.10
2021,12,02,05,36,6.10
2021,12,02,05,37,6.10
2021,12,02,05,38,6.10
2021,12,02,05,39,6.00
2021,12,02,05,40,6.00
2021,12,02,05,41,6.00
2021,12,02,05,42,6.00
2021,12,02,05,43,6.00
2021,12,02,05,44,6.00
2021,12,02,05,45,6.00
2021,12,02,05,46,6.00
2021,12,02,05,47,5.90
2021,12,02,05,48,6.00
2021,12,02,05,49,5.90
2021,12,02,05,50,5.90
2021,12,02,05,51,6.00
2021,12,02,05,52,6.00
2021,12,02,05,53,6.10
2021,12,02,05,54,6.10
2021,12,02,05,55,6.10
2021,12,02,05,56,6.10
2021,12,02,05,57,6.10
2021,12,02,05,58,6.10
2021,12,02,05,59,6.10
2021,12,02,06,00,6.10
2021,12,02,06,01,6.10
2021,12,02,06,02,6.10
2021,12,02,06,03,6.10
2021,12,02,06,04,6.10
2021,12,02,06,05,6.10
2021,12,02,06,06,6.00
2021,12,02,06,07,6.00
2021,12,02,06,08,6.00
2021,12,02,06,09,5.90
2021,12,02,06,10,5.90
2021,12,02,06,11,5.90
2021,12,02,06,12,5.90
2021,12,02,06,13,5.90
2021,12,02,06,14,5.80
2021,12,02,06,15,5.80
2021,12,02,06,16,5.80
2021,12,02,06,17,5.80
2021,12,02,06,18,5.70
2021,12,02,06,19,5.70
2021,12,02,06,20,5.70
2021,12,02,06,21,5.70
2021,12,02,06,22,5.70
2021,12,02,06,23,5.70
2021,12,02,06,24,5.60
2021,12,02,06,25,5.60
2021,12,02,06,26,5.60
2021,12,02,06,27,5.60
2021,12,02,06,28,5.60
2021,12,02,06,29,5.60
2021,12,02,06,30,5.60
2021,12,02,06,31,5.60
2021,12,02,06,32,5.60
2021,12,02,06,33,5.50
2021,12,02,06,34,5.50
2021,12,02,06,35,5.50
2021,12,02,06,36,5.50
2021,12,02,06,37,5.50
2021,12,02,06,38,5.50
2021,12,02,06,39,5.50
2021,12,02,06,40,5.40
2021,12,02,06,41,5.40
2021,12,02,06,42,5.40
2021,12,02,06,43,5.40
2021,12,02,06,44,5.40
2021,12,02,06,45,5.40
2021,12,02,06,46,5.40
2021,12,02,06,47,5.40
2021,12,02,06,48,5.40
2021,12,02,06,49,5.40
2021,12,02,06,50,5.30
2021,12,02,06,51,5.30
2021,12,02,06,52,5.30
2021,12,02,06,53,5.30
2021,12,02,06,54,5.30
2021,12,02,06,55,5.30
2021,12,02,06,56,5.30
2021,12,02,06,57,5.30
2021,12,02,06,58,5.30
2021,12,02,06,59,5.20
2021,12,02,07,00,5.20
2021,12,02,07,01,5.20
2021,12,02,07,02,5.20
2021,12,02,07,03,5.20
2021,12,02,07,04,5.10
2021,12,02,07,05,5.10
2021,12,02,07,06,5.10
2021,12,02,07,07,5.10
2021,12,02,07,08,5.10
2021,12,02,07,09,5.10
2021,12,02,07,10,5.00
2021,12,02,07,11,5.00
2021,12,02,07,12,5.00
2021,12,02,07,13,5.00
2021,12,02,07,14,5.00
2021,12,02,07,15,5.00
2021,12,02,07,16,5.00
2021,12,02,07,17,4.90
2021,12,02,07,18,4.90
2021,12,02,07,19,4.90
2021,12,02,07,20,4.90
2021,12,02,07,21,4.90
2021,12,02,07,22,4.90
2021,12,02,07,23,4.90
2021,12,02,07,24,4.90
2021,12,02,07,25,4.80
2021,12,02,07,26,4.80
2021,12,02,07,27,4.80
2021,12,02,07,28,4.80
2021,12,02,07,29,4.80
2021,12,02,07,30,4.80
2021,12,02,07,31,4.80
2021,12,02,07,32,4.80
2021,12,02,07,33,4.80
2021,12,02,07,34,4.80
2021,12,02,07,35,4.80
2021,12,02,07,36,4.80
2021,12,02,07,37,4.80
2021,12,02,07,38,4.80
2021,12,02,07,39,4.80
2021,12,02,07,40,4.80
2021,12,02,07,41,4.80
2021,12,02,07,42,4.80
2021,12,02,07,43,4.80
2021,12,02,07,44,4.80
2021,12,02,07,45,4.80
2021,12,02,07,46,4.80
2021,12,02,07,47,4.70
2021,12,02,07,48,4.70
2021,12,02,07,49,4.70
2021,12,02,07,50,4.70
2021,12,02,07,51,4.70
2021,12,02,07,52,4.70
2021,12,02,07,53,4.70
2021,12,02,07,54,4.70
2021,12,02,07,55,4.60
2021,12,02,07,56,4.60
2021,12,02,07,57,4.60
2021,12,02,07,58,4.60
2021,12,02,07,59,4.60
2021,12,02,08,00,4.60
2021,12,02,08,01,4.60
2021,12,02,08,02,4.60
2021,12,02,08,03,4.50
2021,12,02,08,04,4.50
2021,12,02,08,05,4.50
2021,12,02,08,06,4.50
2021,12,02,08,07,4.50
2021,12,02,08,08,4.40
2021,12,02,08,09,4.40
2021,12,02,08,10,4.40
2021,12,02,08,11,4.40
2021,12,02,08,12,4.40
2021,12,02,08,13,4.40
2021,12,02,08,14,4.40
2021,12,02,08,15,4.40
2021,12,02,08,16,4.40
2021,12,02,08,17,4.40
2021,12,02,08,18,4.40
2021,12,02,08,19,4.40
2021,12,02,08,20,4.40
2021,12,02,08,21,4.40
2021,12,02,08,22,4.30
2021,12,02,08,23,4.30
2021,12,02,08,24,4.40
2021,12,02,08,25,4.30
2021,12,02,08,26,4.30
2021,12,02,08,27,4.30
2021,12,02,08,28,4.30
2021,12,02,08,29,4.30
2021,12,02,08,30,4.30
2021,12,02,08,31,4.30
2021,12,02,08,32,4.30
2021,12,02,08,33,4.30
2021,12,02,08,34,4.30
2021,12,02,08,35,4.30
2021,12,02,08,36,4.30
2021,12,02,08,37,4.30
2021,12,02,08,38,4.30
2021,12,02,08,39,4.30
2021,12,02,08,40,4.30
2021,12,02,08,41,4.30
2021,12,02,08,42,4.30
2021,12,02,08,43,4.30
2021,12,02,08,44,4.30
2021,12,02,08,45,4.30
2021,12,02,08,46,4.30
2021,12,02,08,47,4.30
2021,12,02,08,48,4.30
2021,12,02,08,49,4.30
2021,12,02,08,50,4.30
2021,12,02,08,51,4.30
2021,12,02,08,52,4.30
2021,12,02,08,53,4.20
2021,12,02,08,54,4.20
2021,12,02,08,55,4.20
2021,12,02,08,56,4.20
2021,12,02,08,57,4.20
2021,12,02,08,58,4.20
2021,12,02,08,59,4.20
2021,12,02,09,00,4.30
2021,12,02,09,01,4.30
2021,12,02,09,02,4.30
2021,12,02,09,03,4.30
2021,12,02,09,04,4.30
2021,12,02,09,05,4.30
2021,12,02,09,06,4.30
2021,12,02,09,07,4.30
2021,12,02,09,08,4.30
2021,12,02,09,09,4.30
2021,12,02,09,10,4.30
2021,12,02,09,11,4.30
2021,12,02,09,12,4.30
2021,12,02,09,13,4.30
2021,12,02,09,14,4.30
2021,12,02,09,15,4.30
2021,12,02,09,16,4.30
2021,12,02,09,17,4.30
2021,12,02,09,18,4.30
2021,12,02,09,19,4.30
2021,12,02,09,20,4.30
2021,12,02,09,21,4.30
2021,12,02,09,22,4.30
2021,12,02,09,23,4.40
2021,12,02,09,24,4.40
2021,12,02,09,25,4.40
2021,12,02,09,26,4.40
2021,12,02,09,27,4.40
2021,12,02,09,28,4.40
2021,12,02,09,29,4.30
2021,12,02,09,30,4.30
2021,12,02,09,31,4.30
2021,12,02,09,32,4.30
2021,12,02,09,33,4.40
2021,12,02,09,34,4.30
2021,12,02,09,35,4.30
2021,12,02,09,36,4.40
2021,12,02,09,37,4.40
2021,12,02,09,38,4.40
2021,12,02,09,39,4.40
2021,12,02,09,40,4.40
2021,12,02,09,41,4.40
2021,12,02,09,42,4.50
2021,12,02,09,43,4.60
2021,12,02,09,44,4.60
2021,12,02,09,45,4.60
2021,12,02,09,46,4.60
2021,12,02,09,47,4.70
2021,12,02,09,48,4.70
2021,12,02,09,49,4.70
2021,12,02,09,50,4.70
2021,12,02,09,51,4.70
2021,12,02,09,52,4.80
2021,12,02,09,53,4.80
2021,12,02,09,54,4.80
2021,12,02,09,55,4.90
2021,12,02,09,56,4.90
2021,12,02,09,57,5.00
2021,12,02,09,58,5.10
2021,12,02,09,59,5.10
2021,12,02,10,00,5.10
2021,12,02,10,01,5.20
2021,12,02,10,02,5.20
2021,12,02,10,03,5.30
2021,12,02,10,04,5.30
2021,12,02,10,05,5.30
2021,12,02,10,06,5.40
2021,12,02,10,07,5.40
2021,12,02,10,08,5.40
2021,12,02,10,09,5.40
2021,12,02,10,10,5.40
2021,12,02,10,11,5.40
2021,12,02,10,12,5.40
2021,12,02,10,13,5.40
2021,12,02,10,14,5.40
2021,12,02,10,15,5.40
2021,12,02,10,16,5.40
2021,12,02,10,17,5.50
2021,12,02,10,18,5.50
2021,12,02,10,19,5.60
2021,12,02,10,20,5.60
2021,12,02,10,21,5.60
2021,12,02,10,22,5.70
2021,12,02,10,23,5.80
2021,12,02,10,24,5.90
2021,12,02,10,25,6.00
2021,12,02,10,26,6.10
2021,12,02,10,27,6.10
2021,12,02,10,28,6.20
2021,12,02,10,29,6.30
2021,12,02,10,30,6.30
2021,12,02,10,31,6.40
2021,12,02,10,32,6.50
2021,12,02,10,33,6.60
2021,12,02,10,34,6.70
2021,12,02,10,35,6.70
2021,12,02,10,36,6.70
2021,12,02,10,37,6.80
2021,12,02,10,38,6.80
2021,12,02,10,39,6.90
2021,12,02,10,40,7.00
2021,12,02,10,41,7.20
2021,12,02,10,42,7.30
2021,12,02,10,43,7.40
2021,12,02,10,44,7.50
2021,12,02,10,45,7.60
2021,12,02,10,46,7.70
2021,12,02,10,47,7.80
2021,12,02,10,48,7.90
2021,12,02,10,49,7.90
2021,12,02,10,50,8.00
2021,12,02,10,51,8.10
2021,12,02,10,52,8.20
2021,12,02,10,53,8.30
2021,12,02,10,54,8.30
2021,12,02,10,55,8.30
2021,12,02,10,56,8.30
2021,12,02,10,57,8.30
2021,12,02,10,58,8.30
2021,12,02,10,59,8.30
2021,12,02,11,00,8.20
2021,12,02,11,01,8.20
2021,12,02,11,02,8.20
2021,12,02,11,03,8.20
2021,12,02,11,04,8.20
2021,12,02,11,05,8.20
2021,12,02,11,06,8.20
2021,12,02,11,07,8.30
2021,12,02,11,08,8.30
2021,12,02,11,09,8.30
2021,12,02,11,10,8.30
2021,12,02,11,11,8.30
2021,12,02,11,12,8.40
2021,12,02,11,13,8.40
2021,12,02,11,14,8.50
2021,12,02,11,15,8.60
2021,12,02,11,16,8.60
2021,12,02,11,17,8.70
2021,12,02,11,18,8.70
2021,12,02,11,19,8.70
2021,12,02,11,20,8.80
2021,12,02,11,21,8.80
2021,12,02,11,22,8.70
2021,12,02,11,23,8.70
2021,12,02,11,24,8.70
2021,12,02,11,25,8.70
2021,12,02,11,26,8.70
2021,12,02,11,27,8.70
2021,12,02,11,28,8.80
2021,12,02,11,29,8.80
2021,12,02,11,30,8.80
2021,12,02,11,31,8.80
2021,12,02,11,32,8.80
2021,12,02,11,33,8.80
2021,12,02,11,34,8.80
2021,12,02,11,35,8.80
2021,12,02,11,36,8.80
2021,12,02,11,37,8.80
2021,12,02,11,38,8.80
2021,12,02,11,39,8.80
2021,12,02,11,40,8.80
2021,12,02,11,41,8.80
2021,12,02,11,42,8.80
2021,12,02,11,43,8.70
2021,12,02,11,44,8.70
2021,12,02,11,45,8.70
2021,12,02,11,46,8.70
2021,12,02,11,47,8.70
2021,12,02,11,48,8.70
2021,12,02,11,49,8.70
2021,12,02,11,50,8.70
2021,12,02,11,51,8.70
2021,12,02,11,52,8.70
2021,12,02,11,53,8.80
2021,12,02,11,54,8.70
2021,12,02,11,55,8.80
2021,12,02,11,56,8.80
2021,12,02,11,57,8.80
2021,12,02,11,58,8.80
2021,12,02,11,59,8.80
2021,12,02,12,00,8.80
2021,12,02,12,01,8.80
2021,12,02,12,02,8.80
2021,12,02,12,03,8.80
2021,12,02,12,04,8.80
2021,12,02,12,05,8.80
2021,12,02,12,06,8.70
2021,12,02,12,07,8.70
2021,12,02,12,08,8.60
2021,12,02,12,09,8.60
2021,12,02,12,10,8.50
2021,12,02,12,11,8.50
2021,12,02,12,12,8.50
2021,12,02,12,13,8.50
2021,12,02,12,14,8.50
2021,12,02,12,15,8.50
2021,12,02,12,16,8.40
2021,12,02,12,17,8.40
2021,12,02,12,18,8.40
2021,12,02,12,19,8.40
2021,12,02,12,20,8.40
2021,12,02,12,21,8.40
2021,12,02,12,22,8.30
2021,12,02,12,23,8.30
2021,12,02,12,24,8.30
2021,12,02,12,25,8.30
2021,12,02,12,26,8.30
2021,12,02,12,27,8.30
2021,12,02,12,28,8.20
2021,12,02,12,29,8.20
2021,12,02,12,30,8.20
2021,12,02,12,31,8.20
2021,12,02,12,32,8.20
2021,12,02,12,33,8.20
2021,12,02,12,34,8.30
2021,12,02,12,35,8.30
2021,12,02,12,36,8.30
2021,12,02,12,37,8.40
2021,12,02,12,38,8.40
2021,12,02,12,39,8.50
2021,12,02,12,40,8.60
2021,12,02,12,41,8.60
2021,12,02,12,42,8.60
2021,12,02,12,43,8.60
2021,12,02,12,44,8.60
2021,12,02,12,45,8.60
2021,12,02,12,46,8.60
2021,12,02,12,47,8.50
2021,12,02,12,48,8.50
2021,12,02,12,49,8.40
2021,12,02,12,50,8.40
2021,12,02,12,51,8.40
2021,12,02,12,52,8.40
2021,12,02,12,53,8.40
2021,12,02,12,54,8.30
2021,12,02,12,55,8.30
2021,12,02,12,56,8.30
2021,12,02,12,57,8.30
2021,12,02,12,58,8.30
2021,12,02,12,59,8.30
2021,12,02,13,00,8.30
2021,12,02,13,01,8.30
2021,12,02,13,02,8.30
2021,12,02,13,03,8.30
2021,12,02,13,04,8.30
2021,12,02,13,05,8.30
2021,12,02,13,06,8.20
2021,12,02,13,07,8.20
2021,12,02,13,08,8.20
2021,12,02,13,09,8.20
2021,12,02,13,10,8.20
2021,12,02,13,11,8.20
2021,12,02,13,12,8.20
2021,12,02,13,13,8.20
2021,12,02,13,14,8.20
2021,12,02,13,15,8.20
2021,12,02,13,16,8.20
2021,12,02,13,17,8.20
2021,12,02,13,18,8.20
2021,12,02,13,19,8.20
2021,12,02,13,20,8.20
2021,12,02,13,21,8.20
2021,12,02,13,22,8.20
2021,12,02,13,23,8.20
2021,12,02,13,24,8.20
2021,12,02,13,25,8.20
2021,12,02,13,26,8.20
2021,12,02,13,27,8.20
2021,12,02,13,28,8.20
2021,12,02,13,29,8.20
2021,12,02,13,30,8.20
2021,12,02,13,31,8.20
2021,12,02,13,32,8.20
2021,12,02,13,33,8.20
2021,12,02,13,34,8.20
2021,12,02,13,35,8.20
2021,12,02,13,36,8.20
2021,12,02,13,37,8.20
2021,12,02,13,38,8.10
2021,12,02,13,39,8.10
2021,12,02,13,40,8.10
2021,12,02,13,41,8.00
2021,12,02,13,42,8.00
2021,12,02,13,43,8.00
2021,12,02,13,44,8.00
2021,12,02,13,45,8.00
2021,12,02,13,46,7.90
2021,12,02,13,47,7.90
2021,12,02,13,48,7.90
2021,12,02,13,49,7.90
2021,12,02,13,50,7.90
2021,12,02,13,51,7.80
2021,12,02,13,52,7.80
2021,12,02,13,53,7.80
2021,12,02,13,54,7.80
2021,12,02,13,55,7.80
2021,12,02,13,56,7.80
2021,12,02,13,57,7.70
2021,12,02,13,58,7.70
2021,12,02,13,59,7.70
2021,12,02,14,00,7.70
2021,12,02,14,01,7.70
2021,12,02,14,02,7.70
2021,12,02,14,03,7.70
2021,12,02,14,04,7.70
2021,12,02,14,05,7.70
2021,12,02,14,06,7.70
2021,12,02,14,07,7.70
2021,12,02,14,08,7.60
2021,12,02,14,09,7.60
2021,12,02,14,10,7.60
2021,12,02,14,11,7.60
2021,12,02,14,12,7.60
2021,12,02,14,13,7.60
2021,12,02,14,14,7.60
2021,12,02,14,15,7.60
2021,12,02,14,16,7.60
2021,12,02,14,17,7.60
2021,12,02,14,18,7.60
2021,12,02,14,19,7.60
2021,12,02,14,20,7.50
2021,12,02,14,21,7.50
2021,12,02,14,22,7.50
2021,12,02,14,23,7.40
2021,12,02,14,24,7.50
2021,12,02,14,25,7.50
2021,12,02,14,26,7.40
2021,12,02,14,27,7.40
2021,12,02,14,28,7.40
2021,12,02,14,29,7.40
2021,12,02,14,30,7.40
2021,12,02,14,31,7.40
2021,12,02,14,32,7.50
2021,12,02,14,33,7.50
2021,12,02,14,34,7.50
2021,12,02,14,35,7.50
2021,12,02,14,36,7.50
2021,12,02,14,37,7.60
2021,12,02,14,38,7.60
2021,12,02,14,39,7.60
2021,12,02,14,40,7.60
2021,12,02,14,41,7.60
2021,12,02,14,42,7.60
2021,12,02,14,43,7.60
2021,12,02,14,44,7.60
2021,12,02,14,45,7.60
2021,12,02,14,46,7.60
2021,12,02,14,47,7.60
2021,12,02,14,48,7.60
2021,12,02,14,49,7.60
2021,12,02,14,50,7.60
2021,12,02,14,51,7.60
2021,12,02,14,52,7.60
2021,12,02,14,53,7.60
2021,12,02,14,54,7.60
2021,12,02,14,55,7.50
2021,12,02,14,56,7.50
2021,12,02,14,57,7.50
2021,12,02,14,58,7.40
2021,12,02,14,59,7.40
2021,12,02,15,00,7.30
2021,12,02,15,01,7.30
2021,12,02,15,02,7.30
2021,12,02,15,03,7.30
2021,12,02,15,04,7.30
2021,12,02,15,05,7.30
2021,12,02,15,06,7.40
2021,12,02,15,07,7.40
2021,12,02,15,08,7.30
2021,12,02,15,09,7.30
2021,12,02,15,10,7.30
2021,12,02,15,11,7.30
2021,12,02,15,12,7.30
2021,12,02,15,13,7.30
2021,12,02,15,14,7.30
2021,12,02,15,15,7.30
2021,12,02,15,16,7.30
2021,12,02,15,17,7.30
2021,12,02,15,18,7.30
2021,12,02,15,19,7.30
2021,12,02,15,20,7.30
2021,12,02,15,21,7.30
2021,12,02,15,22,7.30
2021,12,02,15,23,7.30
2021,12,02,15,24,7.30
2021,12,02,15,25,7.30
2021,12,02,15,26,7.30
2021,12,02,15,27,7.30
2021,12,02,15,28,7.30
2021,12,02,15,29,7.30
2021,12,02,15,30,7.20
2021,12,02,15,31,7.20
2021,12,02,15,32,7.20
2021,12,02,15,33,7.10
2021,12,02,15,34,7.10
2021,12,02,15,35,7.10
2021,12,02,15,36,7.10
2021,12,02,15,37,7.10
2021,12,02,15,38,7.10
2021,12,02,15,39,7.10
2021,12,02,15,40,7.10
2021,12,02,15,41,7.10
2021,12,02,15,42,7.10
2021,12,02,15,43,7.10
2021,12,02,15,44,7.00
2021,12,02,15,45,7.00
2021,12,02,15,46,6.90
2021,12,02,15,47,6.90
2021,12,02,15,48,6.80
2021,12,02,15,49,6.80
2021,12,02,15,50,6.80
2021,12,02,15,51,6.80
2021,12,02,15,52,6.80
2021,12,02,15,53,6.80
2021,12,02,15,54,6.80
2021,12,02,15,55,6.70
2021,12,02,15,56,6.70
2021,12,02,15,57,6.70
2021,12,02,15,58,6.70
2021,12,02,15,59,6.70
2021,12,02,16,00,6.70
2021,12,02,16,01,6.70
2021,12,02,16,02,6.70
2021,12,02,16,03,6.60
2021,12,02,16,04,6.60
2021,12,02,16,05,6.60
2021,12,02,16,06,6.60
2021,12,02,16,07,6.50
2021,12,02,16,08,6.50
2021,12,02,16,09,6.50
2021,12,02,16,10,6.50
2021,12,02,16,11,6.40
2021,12,02,16,12,6.40
2021,12,02,16,13,6.30
2021,12,02,16,14,6.30
2021,12,02,16,15,6.30
2021,12,02,16,16,6.30
2021,12,02,16,17,6.30
2021,12,02,16,18,6.30
2021,12,02,16,19,6.30
2021,12,02,16,20,6.30
2021,12,02,16,21,6.20
2021,12,02,16,22,6.30
2021,12,02,16,23,6.20
2021,12,02,16,24,6.20
2021,12,02,16,25,6.20
2021,12,02,16,26,6.20
2021,12,02,16,27,6.20
2021,12,02,16,28,6.10
2021,12,02,16,29,6.10
2021,12,02,16,30,6.10
2021,12,02,16,31,6.10
2021,12,02,16,32,6.00
2021,12,02,16,33,6.00
2021,12,02,16,34,6.00
2021,12,02,16,35,5.90
2021,12,02,16,36,5.90
2021,12,02,16,37,5.90
2021,12,02,16,38,5.90
2021,12,02,16,39,5.90
2021,12,02,16,40,5.80
2021,12,02,16,41,5.80
2021,12,02,16,42,5.80
2021,12,02,16,43,5.80
2021,12,02,16,44,5.80
2021,12,02,16,45,5.80
2021,12,02,16,46,5.70
2021,12,02,16,47,5.70
2021,12,02,16,48,5.70
2021,12,02,16,49,5.70
2021,12,02,16,50,5.70
2021,12,02,16,51,5.70
2021,12,02,16,52,5.70
2021,12,02,16,53,5.70
2021,12,02,16,54,5.70
2021,12,02,16,55,5.70
2021,12,02,16,56,5.70
2021,12,02,16,57,5.70
2021,12,02,16,58,5.70
2021,12,02,16,59,5.70
2021,12,02,17,00,5.70
2021,12,02,17,01,5.70
2021,12,02,17,02,5.70
2021,12,02,17,03,5.70
2021,12,02,17,04,5.70
2021,12,02,17,05,5.70
2021,12,02,17,06,5.60
2021,12,02,17,07,5.60
2021,12,02,17,08,5.60
2021,12,02,17,09,5.60
2021,12,02,17,10,5.60
2021,12,02,17,11,5.50
2021,12,02,17,12,5.50
2021,12,02,17,13,5.50
2021,12,02,17,14,5.40
2021,12,02,17,15,5.40
2021,12,02,17,16,5.40
2021,12,02,17,17,5.40
2021,12,02,17,18,5.40
2021,12,02,17,19,5.40
2021,12,02,17,20,5.40
2021,12,02,17,21,5.30
2021,12,02,17,22,5.30
2021,12,02,17,23,5.30
2021,12,02,17,24,5.30
2021,12,02,17,25,5.30
2021,12,02,17,26,5.20
2021,12,02,17,27,5.20
2021,12,02,17,28,5.20
2021,12,02,17,29,5.20
2021,12,02,17,30,5.20
2021,12,02,17,31,5.10
2021,12,02,17,32,5.10
2021,12,02,17,33,5.10
2021,12,02,17,34,5.10
2021,12,02,17,35,5.00
2021,12,02,17,36,5.00
2021,12,02,17,37,5.00
2021,12,02,17,38,4.90
2021,12,02,17,39,4.90
2021,12,02,17,40,4.80
2021,12,02,17,41,4.80
2021,12,02,17,42,4.80
2021,12,02,17,43,4.70
2021,12,02,17,44,4.70
2021,12,02,17,45,4.60
2021,12,02,17,46,4.60
2021,12,02,17,47,4.60
2021,12,02,17,48,4.50
2021,12,02,17,49,4.50
2021,12,02,17,50,4.40
2021,12,02,17,51,4.40
2021,12,02,17,52,4.30
2021,12,02,17,53,4.30
2021,12,02,17,54,4.20
2021,12,02,17,55,4.20
2021,12,02,17,56,4.10
2021,12,02,17,57,4.10
2021,12,02,17,58,4.10
2021,12,02,17,59,4.00
2021,12,02,18,00,4.00
2021,12,02,18,01,3.90
2021,12,02,18,02,3.90
2021,12,02,18,03,3.80
2021,12,02,18,04,3.80
2021,12,02,18,05,3.80
2021,12,02,18,06,3.70